Regional Weather Roundup
Issued by NWS Newport/Morehead, NC

Current Version | Previous Version | Text Only | Print | Product List | Glossary Off
Versions: 1 2 3 4 5 6 7 8 9 10 11 12 13 14 15 16 17 18 19 20 21 22 23 24 25 26 27 28 29 30 31 32 33 34 35 36 37 38 39 40 41 42 43 44 45 46 47 48 49 50

000
ASUS42 KMHX 240013
RWRMHX
WEATHER ROUNDUP FOR EASTERN NORTH CAROLINA
NATIONAL WEATHER SERVICE NEWPORT/MOREHEAD CITY NC
800 PM EDT MON APR 23 2018

NOTE: "FAIR" INDICATES FEW OR NO CLOUDS BELOW 12,000 FEET
WITH NO SIGNIFICANT WEATHER AND/OR OBSTRUCTIONS TO VISIBILITY

NCZ015>017-031-032-045>047-102-103-240100-
NORTH COAST

CITY           SKY/WX    TMP DP  RH WIND       PRES   REMARKS
EDENTON        FAIR      62  50  66 E15G23    30.31S
ELIZABETH CITY FAIR      60  47  61 E14       30.32F
KITTY HAWK     FAIR      55  48  78 E7        30.30F
MANTEO         FAIR      58  48  68 E9        30.32F

$$

NCZ045>047-081-094-103-104-240100-
CENTRAL COAST

CITY           SKY/WX    TMP DP  RH WIND       PRES   REMARKS
FRISCO         FAIR      63  52  67 E12       30.28F

$$

NCZ095-097-098-100-101-240100-
SOUTHERN COAST

CITY           SKY/WX    TMP DP  RH WIND       PRES   REMARKS
BEAUFORT       NOT AVBL
CEDAR ISLAND   NOT AVBL
JACKSONVILLE   LGT RAIN  64  55  72 E20       30.19F
PINEY ISLAND   NOT AVBL
WILMINGTON     MOCLDY    64  56  75 E13G23    30.16F


$$

NCZ011>013-027>030-043-044-078>080-089-090>093-098-240100-
COASTAL PLAIN

CITY           SKY/WX    TMP DP  RH WIND       PRES   REMARKS
AHOSKIE        FAIR      60  44  54 E8        30.30R
CLINTON        FAIR      59  56  90 E7        30.18S
ELIZABETHTOWN  CLOUDY    59  56  91 MISG      30.15F
GOLDSBORO      FAIR      64  51  64 E15G23    30.19S
GREENVILLE     FAIR      63  46  55 E12G17    30.24F
HAVELOCK       CLOUDY    66  53  63 E14G28    30.24S
KENANSVILLE    LGT RAIN  59  55  88 E6        30.19F
KINSTON        FAIR      64  50  59 E10G17    30.23F
NEW BERN       FAIR      64  51  62 E9        30.25S
RICHLANDS      LGT RAIN  61  55  81 E12       30.19F
ROCKY MOUNT    MOCLDY    63  49  60 E7G20     30.24S
WASHINGTON     MOCLDY    63  47  56 E9G17     30.27R
WHITEVILLE     CLOUDY    62  58  85 E9G20     30.13R

$$

AMZ130-135-150-152-154-156-158-170-250-252-270-ANZ085-086-088-633-658-670-240100-
MARINE OBSERVATIONS

STATION/POSITION TIME  TEMP    WIND        PRES    WAVE   SWELL
                       AIR SEA DIR/SP/G            HT/PER HT/PER
                 (UTC) (F)     (DEG/KT/KT) (MB)    (FT/S) (FT/S)
CHESAPEAKE LIGHT NOT AVBL
64 E VA BEACH    2350   53 50   70/ 12/ 14 1028.7    3/ 4   2/ 7
DUCK             2348      55   80/ 18/ 20 1026.1
2 E DUCK         0000      53                N/A     4/ 5
OREGON INLET     2342      59   60/  8/ 13 1026.2
13E OREGON INLT  2348      52                N/A     5/ 6   5/ 6
HATTERAS CG      2348      62  110/ 12/ 17 1025.1
DIAMOND BUOY     2350   67 73  100/ 19/ 25 1025.6    7/ 7
CAPE LOOKOUT     NOT AVBL
BEAUFORT LAB     2348      63  100/ 12/ 17 1023.9
30 SE NEW RVR IN 2308   67 65  110/ 19/ 25 1022.8
30 SE NEW RVR IN 0000      65                N/A     9/ 8
27 SE WRIGHTSVLE 2308   66 65  130/ 23/ 31 1021.8
5 SE WRIGHTSVLE  2308   64 61  110/ 14/ 19 1021.6
225 S CAPE HAT   2350   69 72  110/ 23/ 29 1022.6    7/ 6   2/11
41 SE CHARLESTON 2350   66 67  110/ 31/ 43 1014.1   16/10   3/14

$$




USA.gov is the U.S. government's official web portal to all federal, state and local government web resources and services.